Flag for Canada Weather past 2 weeks in Saguenay, Quebec, Canada

Now
12 °F

Cold.


Feels Like: -1 °F
Forecast: N/A
Wind: 10 mph from West

Location: Jonquiere Airport

Current Time: Feb 27, 2015 at 4:26:24 PM

Latest Report: Feb 27, 2015 at 4:00 PM


Visibility: N/A

Pressure: 30.24 "Hg

Humidity: 46%

Dew point: -5 °F

Location of SaguenayLocation

Historic Weather in Saguenay — Graph

°F

Saguenay temperature yesterday

Maximum temperature yesterday: 1 °F (at 4:00 PM)
Minimum temperature yesterday: -11 °F (at 11:00 PM)
Average temperature yesterday: -5 °F

Past Weeks' High & Low Weather Summary

 TemperatureHumidityPressure
High22 °F (Feb 25, 1:00 PM)96% (Feb 23, 12:00 AM)30.31 "Hg (Feb 23, 12:00 AM)
Low-26 °F (Feb 24, 6:00 AM)32% (Feb 18, 4:00 PM)29.54 "Hg (Feb 20, 3:00 AM)
Average-2 °F68%29.98 "Hg
* Reported Feb 12 3:00 PM — Feb 27 3:00 PM, Saguenay, Weather by CustomWeather, © 2015

Note: Actual official high and low records may vary slightly from our data, if they occured in-between our weather recording intervals... More about our weather records

Advertising

Saguenay weather history for previous 24 hours

 ConditionsComfort  
Time TempWeatherWind HumidityBarometerVisibility
3:00 PM
Fri, Feb 27
12 °FCold.14 mph50%30.24 "HgN/A
2:00 PM10 °FFrigid.15 mph47%30.23 "HgN/A
1:00 PM8 °FFrigid.18 mph47%30.23 "HgN/A
12:00 PM7 °FFrigid.17 mph48%30.22 "HgN/A
11:00 AM4 °FFrigid.9 mph62%30.23 "HgN/A
10:00 AM-5 °FFrigid.1 mph74%30.24 "HgN/A
9:00 AM-12 °FExtremely cold.3 mph76%30.24 "HgN/A
8:00 AM-18 °FExtremely cold.1 mph72%30.23 "HgN/A
7:00 AM-22 °FExtremely cold.No wind71%30.22 "HgN/A
6:00 AM-21 °FExtremely cold.1 mph72%30.21 "HgN/A
5:00 AM-21 °FExtremely cold.No wind72%30.19 "HgN/A
4:00 AM-16 °FExtremely cold.1 mph68%30.18 "HgN/A
3:00 AM-18 °FExtremely cold.No wind74%30.18 "HgN/A
2:00 AM-14 °FExtremely cold.3 mph68%30.18 "HgN/A
1:00 AM-13 °FExtremely cold.No wind73%30.19 "HgN/A
12:00 AM-10 °FExtremely cold.3 mph71%30.18 "HgN/A
11:00 PM
Thu, Feb 26
-11 °FExtremely cold.5 mph70%30.18 "HgN/A
10:00 PMN/A5 mphN/A30.18 "HgN/A
9:00 PM-7 °FFrigid.8 mph63%30.16 "HgN/A
8:00 PM-6 °FFrigid.7 mph60%30.16 "HgN/A
7:00 PM-4 °FFrigid.7 mph58%30.15 "HgN/A
6:00 PM-1 °FFrigid.9 mph53%30.14 "HgN/A
5:00 PM0 °FFrigid.9 mph50%30.13 "HgN/A
4:00 PM1 °FFrigid.8 mph48%30.12 "HgN/A
Weather by CustomWeather, © 2015

See weather overviewHow to use our weather pages